Location: Unspecified
(38.9820°N, 94.4650°W)
Time: 14:39:34
(UTC-05:00)

Resurs 1-4 Rocket - Visible Passes

Search period start: 26 May 2018 00:00
Search period end: 05 June 2018 00:00
Orbit: 799 x 814 km, 98.5° (Epoch: 26 May)

Date Brightness Start Highest point End Pass type
(mag) Time Alt. Az. Time Alt. Az. Time Alt. Az.
26 May 2.0 03:22:52 10° NNE 03:28:12 89° WNW 03:29:45 48° SSW visible
26 May 4.2 05:05:33 10° NW 05:07:14 11° WNW 05:08:53 10° WNW visible
27 May 2.6 02:58:24 10° NNE 03:03:36 54° E 03:04:53 43° SE visible
27 May 3.8 04:39:20 10° NNW 04:42:59 19° WNW 04:45:59 12° WSW visible
28 May 3.3 02:34:12 10° NE 02:38:55 31° E 02:40:03 29° ESE visible
28 May 3.1 04:14:02 10° N 04:18:39 31° WNW 04:21:08 21° WSW visible
29 May 4.0 02:10:29 10° NE 02:14:08 19° E 02:15:12 18° ESE visible
29 May 2.4 03:49:06 10° N 03:54:14 51° WNW 03:56:17 33° SW visible
30 May 4.6 01:48:38 10° E 01:49:17 10° E 01:49:57 10° E visible
30 May 2.0 03:24:23 10° NNE 03:29:44 86° WNW 03:31:26 45° SSW visible
30 May 4.2 05:07:18 10° NW 05:08:43 11° WNW 05:10:08 10° WNW visible
31 May 2.5 02:59:54 10° NNE 03:05:08 56° E 03:06:35 42° SSE visible
31 May 3.8 04:40:56 10° NNW 04:44:29 19° WNW 04:47:40 11° WSW visible
01 Jun 3.3 02:35:42 10° NNE 02:40:28 33° E 02:41:44 29° SE visible
01 Jun 3.2 04:15:37 10° N 04:20:10 30° WNW 04:22:50 20° WSW visible
02 Jun 4.0 02:11:55 10° NE 02:15:42 19° E 02:16:53 18° ESE visible
02 Jun 2.5 03:50:39 10° N 03:55:46 49° WNW 03:57:58 31° SW visible
03 Jun 4.5 01:49:36 10° ENE 01:50:50 11° E 01:52:02 10° ESE visible
03 Jun 2.0 03:25:55 10° NNE 03:31:16 83° WNW 03:33:07 42° SSW visible
03 Jun 4.3 05:09:07 10° NW 05:10:13 11° WNW 05:11:19 10° WNW visible
04 Jun 2.4 03:01:25 10° NNE 03:06:40 58° E 03:08:15 41° SSE visible
04 Jun 3.8 04:42:32 10° NNW 04:46:00 18° WNW 04:49:20 10° WSW visible
